Satellite: NCUBE2
Catalog number: 28897
Epoch time:      07031.71722818
Element set:    0180
Inclination:      098.1484 deg
RA of node:       291.0930 deg
Eccentricity:    0.0017462
Arg of perigee:   176.7990 deg
Mean anomaly:     183.3322 deg
Mean motion:   14.59667943 rev/day
Decay rate:       1.16e-06 rev/day^2
Epoch rev:           05946
Checksum:              326

Satellite: NMARS
Catalog number: 29662
Epoch time:      07032.58989979
Element set:      60
Inclination:      051.6401 deg
RA of node:       082.1774 deg
Eccentricity:    0.0010930
Arg of perigee:   167.0025 deg
Mean anomaly:     193.1254 deg
Mean motion:   15.87356516 rev/day
Decay rate:     8.5946e-04 rev/day^2
Epoch rev:             664
Checksum:              314

Satellite: FCAL
Catalog number: 29664
Epoch time:      07032.51522574
Element set:      43
Inclination:      051.6336 deg
RA of node:       083.1671 deg
Eccentricity:    0.0015807
Arg of perigee:   169.1453 deg
Mean anomaly:     191.0427 deg
Mean motion:   15.83762255 rev/day
Decay rate:     2.8133e-04 rev/day^2
Epoch rev:             660
Checksum:              281

/EX





More information about the Keps mailing list